RH
75 86 73 66 69 81 50 58 44 42 41 43 35 30 26 27 22 18 19 24 31 39 43 42 42 38 39 56 76 64 60 81 81 77 63 52 44 34 36 35 36 39 35 33 26 26 23
97 97 87 82 78 75 82 64 56 44 46 52 67 52 50 45 37 35 38 44 46 51 45 43 39 40 47 71 82 62 78 72 75 64 56 52 43 41 42 37 38 37 33 30 25 25 24
100 92 100 93 95 82 93 75 76 62 46 48 55 65 62 69 64 65 61 60 52 46 43 38 39 49 58 73 64 63 79 57 70 60 61 50 40 43 41 36 32 34 31 25 24 26 30
77 86 84 100 98 91 98 100 73 78 60 46 45 54 56 57 56 54 49 49 44 40 37 41 47 54 61 75 72 56 73 68 71 62 53 46 48 49 38 36 36 28 26 26 27 29 32
78 93 100 96 100 100 90 100 100 70 80 62 53 43 44 50 49 51 50 47 43 38 37 42 57 63 70 74 66 67 66 70 57 49 54 54 50 44 37 38 29 25 27 27 27 30 29
73 86 97 95 99 100 100 95 100 100 67 82 68 62 47 38 41 43 40 38 40 44 52 52 56 70 75 67 60 63 63 66 62 64 55 49 47 41 38 29 29 26 27 29 32 33 31
88 83 85 77 95 93 100 100 99 100 100 65 82 80 68 57 42 36 36 42 45 54 56 60 61 77 73 67 65 69 71 78 72 67 57 54 44 40 36 30 29 28 29 30 37 37 35
93 98 95 92 79 79 83 93 91 82 100 100 66 71 98 71 76 66 58 53 57 70 61 57 56 71 68 61 58 63 62 72 69 64 58 50 47 37 31 31 31 28 30 30 33 30 29
84 87 99 99 94 67 56 58 60 66 68 100 100 78 58 84 82 74 81 81 68 60 56 60 61 66 58 53 59 61 62 63 64 60 52 49 40 35 34 31 28 28 30 33 26 27 34
91 77 88 99 100 98 72 50 44 50 49 53 79 94 70 56 57 78 72 77 72 59 56 53 54 49 47 44 54 57 56 54 52 50 51 43 38 34 30 27 29 28 32 26 29 37 40
60 92 72 78 91 100 100 95 78 68 58 42 32 44 66 65 54 47 40 53 60 70 57 46 48 48 40 38 38 44 44 43 40 46 42 38 33 28 28 29 31 29 27 32 38 40 45
57 55 83 83 83 74 82 87 93 93 79 65 51 43 31 42 54 50 46 42 33 41 52 53 49 47 42 38 38 41 45 47 43 41 37 32 29 27 29 32 27 28 32 36 38 41 47
64 56 63 92 98 83 75 75 75 84 92 98 82 66 51 46 36 34 43 40 41 36 33 28 32 33 34 36 36 35 34 33 32 30 27 27 29 30 29 32 36 36 36 36 36 40 38
85 72 62 69 85 100 90 71 67 71 64 89 100 100 98 64 47 51 34 28 32 35 33 31 33 32 31 29 28 28 27 27 28 28 30 31 33 38 41 40 40 41 40 36 30 34 37
87 92 68 62 76 94 100 90 77 69 67 65 68 85 91 98 99 77 60 44 33 33 30 26 28 25 26 29 31 33 34 36 38 39 39 40 41 41 40 38 36 36 33 28 23 22 26
43 100 99 48 65 72 93 100 90 83 62 66 68 74 73 85 86 81 70 75 62 38 33 34 28 27 28 23 21 21 22 24 23 24 25 25 25 28 27 27 27 27 33 35 36 38 40
51 41 96 100 65 55 63 60 92 91 98 76 60 64 70 66 69 69 75 68 62 63 51 34 33 34 34 30 32 33 34 37 40 41 40 40 40 43 43 42 42 44 46 53 60 65 67
62 54 59 96 100 56 77 49 56 57 75 100 73 60 49 52 61 70 73 74 73 63 62 72 52 36 31 34 40 44 44 45 45 44 39 40 42 45 48 51 59 72 91 89 80 75 72
58 52 49 55 99 93 62 78 66 56 58 74 52 52 75 73 44 54 58 73 81 81 77 71 73 78 76 70 75 65 45 39 41 49 58 68 75 81 85 88 92 86 83 83 80 74 86
59 67 71 56 63 100 100 96 90 93 56 61 92 66 68 46 38 43 47 51 56 64 68 72 76 73 73 78 83 92 99 99 94 94 89 84 82 80 89 94 97 100 100 100 99 99 95
76 60 79 74 67 78 100 100 84 93 58 59 89 99 90 46 43 40 47 50 50 53 50 52 57 49 48 53 65 74 86 97 100 97 94 87 85 94 100 100 92 96 100 100 100 100 93
79 60 80 89 100 85 100 87 100 92 83 67 61 82 96 100 53 63 53 55 60 57 55 67 75 71 61 54 46 60 90 87 76 86 91 89 92 93 100 100 100 100 100 100 100 100 100
78 67 76 67 100 100 94 100 100 100 69 95 86 57 78 98 83 61 61 53 51 59 61 63 71 84 86 85 73 67 64 65 64 71 76 79 80 83 86 92 90 98 98 94 93 96 91
77 100 69 98 97 100 89 89 92 92 99 66 91 96 94 67 90 91 74 57 65 52 57 63 61 61 66 63 74 76 76 66 62 63 65 66 67 66 60 66 62 61 64 66 64 76 79
100 100 97 64 83 100 100 98 72 65 100 100 98 92 86 100 99 100 99 84 93 100 90 65 60 86 65 64 63 66 58 69 61 63 58 53 54 51 51 49 48 48 49 51 47 48 54
100 85 86 76 55 86 100 76 92 73 91 100 99 98 86 84 96 92 95 100 91 96 94 78 76 59 67 66 85 70 80 62 62 79 91 78 59 51 55 47 51 48 53 49 62 76 50
73 100 97 98 94 59 60 85 91 91 99 94 94 98 97 93 99 94 87 68 87 88 87 100 96 85 77 90 81 71 80 80 74 83 75 60 73 86 67 64 58 59 57 69 57 64 43
100 88 100 94 96 100 99 85 94 100 83 96 100 100 100 100 100 100 100 99 94 87 93 83 89 97 93 81 81 79 78 86 85 86 78 84 90 82 66 70 63 74 68 62 53 48 34
100 100 100 100 100 100 100 100 98 92 99 100 100 83 100 100 100 100 100 100 100 92 84 92 79 96 85 92 91 96 99 100 89 82 95 82 92 70 65 59 78 76 68 47 37 39 31
Wind_Speed
49 53 57 62 67 74 76 78 74 76 75 69 59 53 47 47 45 48 56 65 70 70 66 63 62 60 60 63 63 60 57 52 48 46 43 43 44 43 39 36 36 34 34 35 34 32 30
45 50 55 58 61 66 73 73 71 68 67 67 64 59 54 50 51 54 60 63 66 66 62 57 56 57 58 60 60 58 56 52 47 45 45 44 43 41 40 37 35 36 34 34 34 33 33
40 44 50 54 55 58 64 69 68 62 59 59 59 56 53 55 55 55 57 57 57 55 52 50 52 54 55 61 58 55 53 51 47 45 43 42 45 43 40 38 36 35 35 33 33 35 36
38 41 44 49 49 51 56 61 64 62 55 48 49 49 51 51 50 49 50 49 47 45 45 47 50 52 55 57 53 51 52 48 48 47 43 44 44 41 38 38 36 35 35 35 37 37 38
36 38 41 43 46 45 47 51 56 57 56 50 44 40 38 39 40 42 40 38 38 38 40 43 47 49 54 52 50 51 51 48 47 44 45 44 43 40 39 39 35 36 36 36 39 39 41
39 38 37 38 38 41 41 42 45 49 50 48 45 40 35 28 31 33 34 34 36 38 40 42 46 49 50 49 49 50 47 45 45 44 42 45 43 40 39 39 40 38 38 39 40 43 40
37 38 38 35 35 36 36 38 36 39 41 42 40 40 34 31 25 23 26 30 35 38 39 42 45 49 48 45 45 47 45 47 46 42 42 43 41 40 42 41 41 40 41 41 41 43 43
35 36 37 38 36 34 33 33 32 29 31 34 35 31 32 28 23 20 19 22 27 34 37 42 46 47 46 45 45 49 48 48 45 45 45 43 43 43 44 44 44 43 42 42 44 37 32
30 32 33 34 37 34 34 32 30 29 23 23 25 27 23 23 21 15 15 15 19 25 31 37 42 44 44 43 46 49 49 47 46 47 44 45 44 46 46 48 45 45 43 43 34 29 28
29 29 30 30 30 33 33 30 30 32 30 19 14 16 17 16 14 15 11 9 15 23 29 33 37 40 43 42 46 47 48 49 48 46 46 47 48 49 50 48 46 44 42 34 28 25 27
29 28 27 27 25 26 27 28 26 26 28 28 23 10 9 10 10 7 6 13 15 20 26 33 38 40 43 44 43 47 49 49 49 49 50 50 51 50 48 46 44 40 32 28 28 30 31
31 28 28 25 26 24 21 21 21 22 23 24 23 22 17 9 6 5 3 1 7 18 26 29 35 39 41 43 44 45 46 47 49 51 51 50 50 48 43 41 36 32 31 31 33 34 38
36 28 28 27 25 25 24 21 18 17 18 21 20 18 17 17 12 9 9 9 7 9 13 19 26 30 35 39 42 43 44 44 46 46 46 45 41 36 35 34 34 35 36 39 40 43 46
44 44 31 28 26 27 28 28 25 22 17 13 15 16 17 16 14 14 10 9 13 16 16 16 16 17 20 24 28 30 32 33 32 32 31 31 33 34 36 38 40 42 45 48 49 50 52
41 45 40 37 28 25 26 33 29 29 26 21 17 15 14 13 16 16 16 17 17 16 19 24 24 24 24 26 27 28 28 29 31 33 35 37 38 41 44 46 48 50 53 56 57 56 57
44 39 41 35 31 34 26 31 32 34 33 30 27 23 21 22 22 22 21 20 21 22 23 22 23 29 32 32 33 34 36 38 39 41 43 44 46 50 51 53 54 56 58 60 62 60 59
51 43 44 45 46 37 38 31 35 37 38 38 36 34 35 30 29 28 29 30 27 27 27 29 29 30 32 33 35 36 39 40 42 43 45 46 48 51 54 54 56 58 59 60 62 65 67
48 49 46 49 47 47 47 39 39 41 44 44 46 43 42 44 40 36 34 34 37 36 35 34 36 37 38 39 42 43 44 46 48 50 52 53 53 57 58 60 62 62 65 69 71 72 74
51 54 46 49 53 50 47 45 42 48 44 48 50 46 45 49 47 49 46 41 42 42 43 43 43 42 45 46 44 48 49 51 53 55 56 58 59 61 63 67 69 70 73 76 77 78 78
63 56 55 52 52 54 56 51 49 54 49 48 52 49 49 48 46 50 51 53 51 49 48 48 51 52 51 50 51 51 54 56 57 59 62 63 64 66 66 69 70 71 75 79 82 84 86
64 54 57 56 57 57 58 59 61 57 54 54 53 55 53 47 46 47 50 52 56 57 58 57 56 56 56 59 60 60 60 62 65 67 70 70 68 70 72 75 76 77 79 83 88 91 94
71 64 56 62 63 60 64 61 65 68 60 57 54 54 55 56 41 45 44 47 45 52 56 54 58 62 62 63 64 64 66 70 73 73 77 79 79 79 77 82 84 83 88 93 96 100 101
74 73 64 60 66 69 65 72 71 70 64 64 66 53 57 63 62 56 54 49 47 47 44 45 50 52 61 62 62 65 64 71 70 71 78 77 86 88 85 87 87 84 88 90 91 103 109
84 80 71 70 65 71 69 71 74 72 71 61 67 66 65 60 65 68 65 64 68 58 59 61 54 56 57 56 63 58 69 68 71 74 76 81 82 89 89 91 95 93 90 90 89 91 103
91 82 87 78 75 75 77 78 75 72 72 72 69 70 68 74 72 70 74 74 72 75 78 74 73 73 71 73 73 68 64 70 71 74 78 82 88 88 93 95 92 94 94 98 100 105 107
96 94 93 92 85 84 85 82 85 83 80 80 80 78 80 75 74 77 77 79 79 78 78 85 84 81 83 82 82 81 80 83 81 87 89 92 92 94 99 101 96 91 101 106 113 111 111
101 105 99 101 99 96 92 92 92 92 91 88 86 88 87 82 86 87 85 83 85 87 88 90 91 94 93 90 91 90 89 91 93 93 95 100 101 105 109 112 104 107 113 116 115 116 118
111 109 107 103 106 107 106 103 100 101 98 96 96 97 95 94 93 93 93 95 94 94 94 97 96 97 100 99 98 99 98 98 103 104 106 114 111 113 118 120 120 117 119 118 119 117 116
120 114 114 113 108 109 112 112 111 105 105 108 104 104 105 104 102 100 100 101 101 101 102 102 105 106 107 105 106 108 108 107 113 115 120 123 123 121 121 119 127 123 121 119 120 118 113
Wind_Direction
4 11 13 15 17 21 27 30 32 36 44 51 59 70 84 95 109 125 137 147 152 158 162 167 170 173 176 178 183 188 191 194 199 208 219 228 236 246 255 259 265 271 277 280 285 283 286
6 11 12 16 18 20 26 33 33 38 44 53 60 68 79 92 104 119 130 138 146 153 159 163 165 170 173 176 183 188 190 196 204 212 222 229 240 248 252 258 266 271 280 280 283 284 290
7 8 13 14 18 21 22 30 38 39 44 51 61 74 84 95 104 112 121 132 141 151 157 161 165 167 173 178 185 188 192 201 207 215 222 230 240 245 252 261 267 274 275 280 284 286 292
11 13 12 14 19 22 24 26 32 42 44 52 58 72 83 91 101 114 127 133 137 142 151 158 163 168 174 180 184 189 196 203 211 218 226 234 241 249 259 264 268 275 278 282 281 289 293
13 13 11 14 18 21 26 27 28 34 46 49 58 65 82 93 104 115 123 133 142 148 153 160 163 168 176 181 185 191 200 208 216 222 229 235 244 252 259 268 269 274 279 282 286 290 293
16 15 13 11 18 20 24 28 28 30 35 49 52 62 72 90 112 123 131 138 146 151 156 161 165 171 179 186 190 197 205 214 222 226 234 241 248 254 262 265 275 280 281 283 287 290 292
15 17 17 18 18 19 24 25 29 29 34 37 52 53 63 74 92 114 130 140 147 153 160 162 171 176 184 191 196 202 209 218 225 231 239 245 254 252 263 271 278 281 284 289 286 289 290
9 13 14 18 19 15 17 19 24 32 35 34 40 55 56 64 80 96 115 135 151 160 166 172 178 183 190 197 202 207 216 223 230 237 243 251 254 261 270 275 280 281 284 287 285 284 279
356 1 9 11 15 19 18 23 23 27 35 41 35 40 55 68 68 85 111 134 155 168 177 183 187 192 197 204 208 214 221 227 235 242 247 252 261 269 272 277 278 282 284 283 279 275 275
346 348 355 6 12 12 19 21 22 20 24 33 39 40 45 53 76 95 113 152 167 178 187 195 200 204 207 213 216 222 229 234 240 248 254 260 267 272 276 279 281 281 280 276 272 278 281
338 336 337 346 355 7 8 13 21 18 18 22 32 26 32 41 54 53 127 158 183 196 200 204 209 214 219 225 228 232 236 242 246 252 260 267 272 275 277 278 277 277 274 275 276 281 286
335 331 325 331 334 338 349 0 7 8 8 12 17 19 25 1 360 7 28 333 217 207 213 217 220 227 232 235 238 242 245 249 254 258 262 267 272 274 275 276 273 273 274 277 279 282 283
325 331 326 319 325 324 325 328 339 351 356 358 359 6 5 3 4 344 304 291 276 252 245 236 235 237 240 242 247 250 254 258 260 263 266 269 271 271 271 272 273 275 278 278 279 282 284
305 313 319 321 312 315 315 317 312 312 317 336 343 342 342 337 332 335 327 310 285 275 268 263 256 251 252 254 256 258 259 262 263 264 266 267 271 273 275 277 278 279 279 280 280 281 284
297 301 308 314 308 306 305 319 313 308 301 297 298 306 303 304 309 304 304 305 299 289 283 265 260 260 257 256 256 257 258 261 263 266 268 270 273 274 274 275 276 277 278 281 283 284 284
305 285 291 305 301 306 301 303 308 310 301 293 290 286 284 287 286 284 279 280 281 281 283 283 280 266 265 266 267 267 266 266 267 268 270 272 274 276 277 279 280 280 282 283 284 284 284
303 304 279 286 293 300 303 300 296 298 295 295 290 288 281 272 271 273 279 276 269 271 270 270 270 273 273 272 270 272 273 274 274 274 274 275 276 275 276 277 278 279 280 282 282 283 283
290 293 284 283 281 293 292 294 296 302 289 290 288 291 291 282 274 268 270 270 273 268 266 269 267 265 267 268 271 271 271 271 272 272 272 272 272 275 276 277 278 279 281 281 282 283 283
288 294 283 277 278 277 286 285 295 298 291 287 288 282 285 286 279 278 273 268 269 270 269 266 263 265 269 265 266 271 270 271 272 273 274 275 275 275 277 278 279 280 281 282 283 283 284
286 286 277 273 274 272 278 284 291 291 289 284 285 287 285 284 281 277 273 274 273 273 274 274 275 273 270 271 273 269 272 272 272 272 272 271 273 274 275 276 278 281 283 284 285 284 283
282 282 274 272 271 270 272 273 279 290 288 282 279 281 285 285 283 278 275 277 275 274 277 278 277 277 276 276 274 272 270 270 272 272 272 272 272 274 275 277 278 279 280 281 280 281 282
278 281 275 271 269 279 272 277 277 284 284 287 282 276 283 279 287 295 283 280 277 276 277 277 280 281 280 281 279 272 272 271 271 271 272 273 273 272 272 274 276 278 279 279 280 281 282
280 278 273 275 270 270 277 273 280 278 283 278 281 280 273 279 284 293 294 291 286 287 283 279 278 279 277 279 281 279 276 275 276 275 274 276 274 270 270 270 275 277 278 283 289 286 283
272 270 275 274 271 267 274 272 280 278 276 282 278 283 277 288 282 286 292 295 295 293 296 302 287 279 284 287 273 281 270 273 275 274 276 273 273 274 276 276 276 275 274 280 282 287 285
268 271 274 275 274 270 274 276 279 278 282 275 278 284 284 278 286 286 287 289 293 293 294 299 295 300 298 296 295 295 297 284 284 286 290 286 276 279 279 277 275 277 281 289 285 285 288
264 269 271 273 273 273 273 277 276 278 281 281 278 280 282 283 283 285 286 286 288 289 290 295 296 296 298 297 298 298 298 298 297 299 299 296 294 298 296 289 294 289 291 292 293 295 290
267 266 268 271 273 272 271 275 276 277 279 278 280 281 282 283 284 285 286 286 286 288 288 291 292 294 295 295 295 295 296 298 299 299 297 296 296 297 297 296 296 295 295 298 296 293 291
264 267 265 269 270 271 274 276 277 277 279 279 280 282 280 281 281 283 285 287 286 287 287 288 291 291 292 292 293 294 296 297 299 299 298 299 295 295 296 297 297 298 297 293 290 291 290
262 264 265 266 267 271 268 272 277 276 277 277 277 279 279 278 279 280 282 283 284 283 285 285 290 289 290 290 293 295 296 294 295 297 297 298 296 294 296 296 297 296 294 292 291 290 287